Date,TemperatureHighF,TemperatureAvgF,TemperatureLowF,DewpointHighF,DewpointAvgF,DewpointLowF,HumidityHigh,HumidityAvg,HumidityLow,PressureMaxIn,PressureMinIn,WindSpeedMaxMPH,WindSpeedAvgMPH,GustSpeedMaxMPH,PrecipitationSumIn
2013-2-1,45.2,42.3,36.2,41.0,35.7,30.0,87,78,71,29.87,29.39,17,6,25,0.01
2013-2-2,44.5,38.5,33.5,35.0,31.6,30.0,88,77,61,30.25,29.88,9,1,10,0.00
2013-2-3,52.0,48.3,41.9,48.0,44.8,36.0,93,87,76,30.14,29.80,16,5,22,0.09
2013-2-4,49.9,43.8,34.2,48.0,37.3,31.0,92,78,66,29.89,29.65,17,7,28,0.23
2013-2-5,45.3,38.7,33.1,39.0,33.4,29.0,89,81,74,29.72,29.40,22,6,24,0.07
2013-2-6,44.9,39.9,34.9,35.0,31.7,30.0,84,73,57,30.25,29.73,14,3,19,0.00
2013-2-7,44.8,37.8,33.7,42.0,34.7,30.0,92,88,82,30.25,29.88,9,2,19,0.20
2013-2-8,46.5,42.5,39.4,43.0,38.7,35.0,91,86,83,30.26,30.16,6,2,9,0.00
2013-2-9,49.9,45.4,42.0,45.0,42.2,39.0,92,88,79,30.18,29.66,7,1,10,0.11
2013-2-10,45.6,43.3,40.8,44.0,41.6,39.0,95,93,91,29.66,29.18,8,2,12,0.91
2013-2-11,41.3,39.4,38.7,40.0,37.4,36.0,95,92,88,29.80,29.23,6,1,12,0.14
2013-2-12,41.5,39.9,38.8,39.0,37.3,37.0,93,90,86,29.97,29.80,12,3,13,0.13
2013-2-13,55.1,48.1,41.6,50.0,44.9,39.0,92,88,81,29.95,29.63,11,3,16,0.31
2013-2-14,50.1,45.6,41.7,46.0,40.7,38.0,90,83,70,30.01,29.66,8,3,16,0.00
2013-2-15,51.0,44.0,38.6,41.0,37.9,36.0,92,80,60,30.10,30.02,5,1,9,0.00
2013-2-16,55.1,47.1,40.1,48.0,42.8,37.0,94,85,73,30.07,30.02,9,1,14,0.01
2013-2-17,46.0,45.7,45.2,43.0,42.1,42.0,88,87,85,30.02,29.97,10,5,14,0.00
2013-2-18,46.1,44.2,42.3,39.0,37.2,35.0,86,76,69,30.06,29.98,10,4,16,0.00
2013-2-19,45.6,40.6,32.4,39.0,35.8,30.0,94,83,77,30.07,30.02,6,2,10,0.00
2013-2-20,45.2,42.3,40.2,39.0,33.9,-99.9,81,75,74,30.13,30.06,12,-11,24,0.00
2013-2-21,40.0,37.6,36.4,33.0,28.9,26.0,75,71,66,30.17,30.12,14,6,21,0.01
2013-2-22,37.5,36.4,34.9,29.0,25.9,24.0,71,66,60,30.22,30.13,10,3,13,0.00
2013-2-23,37.4,36.2,34.4,32.0,28.4,24.0,86,74,60,30.31,30.22,6,1,10,0.01
2013-2-24,37.1,34.5,31.2,33.0,30.6,28.0,90,85,79,30.32,30.30,4,0,8,0.04
2013-2-25,45.8,41.5,36.5,35.0,33.7,32.0,88,74,62,30.55,30.50,4,1,9,0.00
2013-2-26,43.6,40.8,35.3,38.0,36.0,32.0,89,83,73,30.63,30.51,5,0,10,0.00
2013-2-27,44.8,41.8,39.2,39.0,36.6,35.0,86,82,75,30.65,30.58,4,1,9,0.00
2013-2-28,45.0,40.4,36.0,40.0,37.0,34.0,95,87,81,30.58,30.46,4,0,7,0.00